Погода в Славгороде

Погода в Славгороде : погода сейчас, прогноз погоды и архив. Всё, что Вы хотите узнать о погоде в Славгороде!

Хотите узнать прогноз погоды в Славгороде? Тогда Вам сюда: Погода в Славгороде

Поиск расширенной информации на нашем сайте:

Полезная информация:

Другие новости

Новости СМИ2

Главная страница сайта

Новости сайта

03.07.2017

Напоминаем, что на нашем специализированном сайте Метеоцентр.Азия вы можете получить высокодетализированные автоматические прогнозы погоды по пунктам России, СНГ и мира в авиационном формате (включающие направление и скорость ветра, видимость, явления погоды, количество и форму облачности, нижнюю и верхнюю границу облачности).

Рекомендуем:

Погода в Славгороде - сегодня

Время (UTC), дата Ветер
(°,м/с) 
Видим.   Явления Облачность Т
(°С)
Тd
(°С)
f(%) Тe
(°С)
Pmin
(гПа)
dP
(гПа)
Po
(мм)
O2
(г/м3)
Тmin Tmax R s Состояние
почвы
06 15.07.19 040 (СВ) 5-10{10}  20000 м    ясно 
+28.6 +9.2 30 +29  1010.6  -1  747  271           
09 15.07.19 050 (СВ) 6-10{11}  20000 м    ясно 
+30.9 +5 20 +31  1009  -1.5  746  269           
12 15.07.19 030 (СВ) 4{12}  20000 м    1/0 верхняя 
[Ci sp]
+30.3 +6.5 22 +30  1008.4  -0.6  746  269    +31.2       
15 15.07.19 040 (СВ) 3{10}  20000 м    ясно 
+25.2 +9.1 36 +25  1009.1  0.4  746  274           
18 15.07.19 040 (СВ) 20000 м    ясно 
+19.4 +10.5 56 +22  1009.5  0.1  746  279           
21 15.07.19 030 (СВ) 20000 м    ясно 
+15.6 +10.7 73 +18  1008.9  -0.8  746  282           
00 16.07.19 040 (СВ) 20000 м    ясно 
+16.2 +10.6 69 +19  1008.9  0.1  746  282  +14.6        сухая 
03 16.07.19 050 (СВ) 20000 м    ясно 
+24 +10.4 42 +26  1008.5  746  274           
06 16.07.19 050 (СВ) 20000 м    8/6 1020 м верхняя 
[Cu hum|Ci sp]
+25.3 +9.6 37 +26  1007.6  -0.8  745  273           
09 16.07.19 010 (С) 1{10}  20000 м    6/4 1000 м верхняя 
[Cu hum|Ci sp]
+27.8 +7.8 28 +28  1006.3  -1.3  744  271           
12 16.07.19 350 (С) 20000 м    4/1 1000 м верхняя 
[Cu hum|Ci sp]
+28.4 +7.4 27 +28  1005.3  -0.8  743  270    +28.8       
15 16.07.19 020 (С) 20000 м    ясно 
+24.3 +9.2 38 +25  1005  -0.6  743  273           
18 16.07.19 060 (СВ) 20000 м    1/0 средняя 
[Ac trans]
+15.8 +10.2 69 +19  1004.8  -0.6  743  281           
21 16.07.19 тихо ()   20000 м    ясно 
+14.9 +10.5 75 +17  1003.8  -1  742  281           
00 17.07.19 350 (С) 20000 м    ясно 
+15.7 +11.2 75 +19  1004.3  0.5  742  281  +13.7        сухая 
03 17.07.19 360 (С) 20000 м    3/0 верхняя 
[Ci sp]
+25.6 +12.2 43 +30  1004  0.2  742  271           
06 17.07.19 330 (СЗ) 20000 м    9/3 600 м кучево-дожд., верхняя 
[Cb cap|Ci sp]
+26.8 +10.1 35 +28  1004.3  0.4  743  271           
12 17.07.19 360 (С) 20000 м  {гроза, ливн. осадки}  9/3 600 м кучево-дожд., верхняя 
[Cb cap|Ci sp]
+29.1 +10.2 31 +31  1003.9  -0.5  742  269    +29.3  0.3     
15 17.07.19 050 (СВ) 20000 м    10/6 800 м кучево-дожд., верхняя 
[Cb cap|Ci sp]
+23.5 +16.4 64 +35  1004.8  0.7  743  272           
21 17.07.19 350 (С) 20000 м    10/4 600 м кучево-дожд., средняя, верхняя 
[Cb cap|Ac trans|Ci sp]
+18.1 +16.7 92 +31  1006.3  0.5  744  277           
00 18.07.19 300 (СЗ) 20000 м    4/0 верхняя 
[Ci sp]
+16.2 +14.9 92 +26  1007.1  0.6  744  280  +16.1    0.6    влажная 
03 18.07.19 310 (СЗ) 20000 м    4/0 верхняя 
[Ci sp]
+19.8 +17.4 86 +34  1008.1  1.2  745  276           
06 18.07.19 330 (СЗ) 20000 м    9/3 600 м кучево-дожд., верхняя 
[Cb cap|Ci sp]
+25.9 +13.4 46 +32  1007.8  745  272           
09 18.07.19 340 (С) 20000 м    8/4 1000 м верхняя 
[Cu med, cong|Ci sp]
+27.6 +11.2 36 +31  1007.4  -0.3  745  271           
12 18.07.19 330 (СЗ) 20000 м    6/3 600 м верхняя 
[Cu med, cong|Ci sp]
+28.1 +10.3 33 +30  1007.5  0.1  745  270    +28.5       
Время (UTC), дата Ветер
(°,м/с) 
Видим.   Явления Облачность Т
(°С)
Тd
(°С)
f(%) Тe
(°С)
Pmin
(гПа)
dP
(гПа)
Po
(мм)
O2
(г/м3)
Тmin Tmax R s Состояние
почвы

Для получения пояснительной информации подведите курсор к названию столбца.

ПОГОДА в Славгороде - архив

Всё, что Вы хотите узнать о погоде в Славгороде - удобно и подробно!

Выберите нужную дату (начиная с 1 января 2018* года) и нажмите кнопку "Найти".
Будут отображены архивные сводки погоды по пункту Славгород, начиная с указанной даты.


Отображать данные в формате CSV (для использования в таблицах Excel)


Внимание! Наш архив погоды предназначен исключительно для личного некоммерческого использования в познавательных целях. Если Вам необходимы официальные справки о состоянии погоды (для производственных, юридических, коммерческих и т.п. целей), обращайтесь в органы Росгидромета.

*Примечание: данная дата относится к архиву по метеостанциям СССР (Россия, СНГ, Балтия).
Архив по метеостанциям Зарубежной Европы и Азии (кроме Китая) хранится 10 дней, по другим регионам земного шара (Китай, Африка, Америка, Австралия, Океания) - 1 день.

Славгород - район местоположения метеостанции


Название, широта, долгота, высота метеостанции:
Славгород 53°ш. 78.6°д. 126 м над ур. моря [Российская Федерация]

Дополнительная информация

В oтличие oт бoльшинства пoгoдных сайтoв мы публикуем пoдрoбную метеoинфoрмацию в детальнoм прoфессиoнальнoм фoрмате.

Характеристики температуры и влажнoсти вoздуха измеряются на высoте 2 м в тени вдали oт зданий и деревьев.
Скoрoсть ветра измеряется на высoте 10 м (на урoвне рoста челoвека скoрoсть ветра ниже в 1.5-2 раза). Если метеoстанция нахoдится в гoрoде или в лесу, тo скoрoсть ветра занижена на 2-4 м/с пo сравнению с oткрытым местoм. Скoрoсть ветра над акватoриями крупных рек и oзёр, а также на вершинах хoлмoв на 2-5 м/с выше, чем в oбычных услoвиях.
Атмoсфернoе давление в разных тoчках местнoсти мoжет значительнo oтличаться oт давления на метеoстанции, в зависимoсти oт услoвий рельефа (при пoдъёме на 10 м давление пoнижается примернo на 1 мм рт.ст.).